COSMOS 252 DEB, 18490

Orbit data source: Space-Track

COSMOS 252 DEB, 18490 is space debris in LEO originally from a launch on Fri, 01 Nov 1968 UTC launched from the Tyuratam Missile And Space Complex (TTMTR). Debris objects in space refer to the collection of defunct objects orbiting the Earth. Examples of debris include non-operational satellites, rocket bodies, and fragments generated from explosions, collisions, or faulty payload assembly.

Loading next visibility...
Identifier
18490, 1968-097EN
Orbit
LEO
Country
Flag of CISCIS
Related business
Manufacturer
Unknown
Mission
Spacecraft
Bus & Motor
Unknown
Mass
Unknown
Launch date (UTC)
1968-11-01 (57 years ago)
Launch vehicle
Unknown
Launch site
Tyuratam Missile And Space Complex (TTMTR)
Object type
Payload
Rocket body
Debris
Shape & HBR
Unknown shape, 0.1 m
Radar Cross Section
Small (<0.1 m²)

Expand to show TLE details & history
Last TLE update: 21 hours ago

TLE from 21 hours ago
0 COSMOS 252 DEB
1 18490U 68097EN  26121.58368736  .00002996  00000-0  50306-3 0  9993
2 18490  62.7403 301.5424 0413564 342.4445  16.2667 14.27972699705763
Epoch: 2026-05-01T14:00Z
TLE epoch observation values (Epoch: 2026-05-01T14:00:30.587Z)
Latitude
-0.00011°
Longitude
-128.09895°
Altitude
516.382 km
Speed
7.755 km/s
True Right ascension
20h 06m 10s
True Declination
0° 00' 00"
Sunlit
Object was in daylight at epoch
Visualization orbit readout
Latitude
Unknown
Longitude
Unknown
Altitude
Unknown
Speed
Unknown
Apparent Right ascension
Unknown
Apparent Declination
Unknown
Sunlit
N/A
Visualization observer readout
Local Sidereal Time
18:19:20
Azimuth
Unknown
Elevation
Unknown
Doppler factor
Unknown
Orbital elements
Apogee altitude
1,094.133 km
Perigee altitude
500.626 km
Semi-major axis
7,175.517 km
Eccentricity
0.04136
Inclination
62.7403°
RAAN
301.5424°
Arg. of periapsis
342.4445°
True anomaly
17.66318°
Mean anomaly
16.2667°
Eccentric anomaly
16.95782°
Mean motion
3.57078 °/min
Orbital period
100.82 mins
BSTAR
0.00050306
Loading maneuver chart data...
Computing Atmospheric mass density...
Loading historical data...
Loading historical data...
Loading historical data...
Loading historical data...
Loading historical data...
Loading historical data...
Loading historical data...

Documentation

Showing up to 5 results
|